Location: Seattle
(47.6064°N, 122.3308°W)
Time: 07:33:34
(UTC-08:00)

S-56A Canister/Altair - All Passes

Search period start: 26 November 2020 00:00
Search period end: 06 December 2020 00:00
Orbit: 633 x 2499 km, 38.9° (Epoch: 25 November)

Date Brightness Start Highest point End Pass type
(mag) Time Alt. Az. Time Alt. Az. Time Alt. Az.
26 Nov - 01:30:39 10° WSW 01:34:12 17° SSW 01:37:18 10° S night (unlit)
26 Nov - 18:43:47 10° SSW 18:51:21 21° SSE 18:57:17 10° ESE visible
26 Nov - 20:46:33 10° SW 20:55:19 37° SSE 21:01:25 10° ESE visible
26 Nov - 22:51:40 10° WSW 22:58:56 39° S 23:04:04 10° ESE visible
27 Nov - 00:57:22 10° WSW 01:01:45 21° SSW 01:05:22 10° SSE night (unlit)
27 Nov - 18:10:48 10° S 18:18:27 20° SSE 18:24:32 10° ESE visible
27 Nov - 20:13:10 10° SW 20:22:30 36° SSE 20:29:01 10° ESE visible
27 Nov - 22:18:18 10° WSW 22:26:17 42° S 22:31:48 10° ESE visible
28 Nov - 00:24:04 10° WSW 00:29:16 24° SSW 00:33:22 10° SSE night (unlit)
28 Nov - 17:37:54 10° S 17:45:29 19° SSE 17:51:40 10° ESE visible
28 Nov - 19:39:45 10° SW 19:49:38 36° SSE 19:56:34 10° E visible
28 Nov - 21:44:52 10° WSW 21:53:35 44° S 21:59:30 10° ESE visible
28 Nov - 23:50:44 10° W 23:56:46 28° SSW 00:01:19 10° SE night (unlit)
29 Nov - 17:05:07 10° S 17:12:30 18° SE 17:18:41 10° ESE visible
29 Nov - 19:06:21 10° SW 19:16:43 35° SSE 19:24:04 10° E visible
29 Nov - 21:11:23 10° WSW 21:20:49 46° S 21:27:11 10° ESE visible
29 Nov - 23:17:20 10° W 23:24:13 32° SSW 23:29:12 10° SE night (unlit)
30 Nov - 16:32:29 10° S 16:39:29 16° SE 16:45:31 10° ESE daylight
30 Nov - 18:32:58 10° SW 18:43:43 35° SSE 18:51:31 10° E visible
30 Nov - 20:37:50 10° WSW 20:48:00 47° S 20:54:49 10° ESE visible
30 Nov - 22:43:52 10° W 22:51:37 37° SSW 22:57:03 10° SE visible
01 Dec - 00:51:14 10° WSW 00:54:00 13° SW 00:56:27 10° SSW night (unlit)
01 Dec - 16:00:04 10° SSE 16:06:27 15° SE 16:12:07 10° ESE daylight
01 Dec - 17:59:36 10° SSW 18:10:41 34° SSE 18:18:53 10° E visible
01 Dec - 20:04:15 10° WSW 20:15:06 48° S 20:22:26 10° ESE visible
01 Dec - 22:10:22 10° W 22:18:58 40° SSW 22:24:51 10° SE visible
02 Dec - 00:17:19 10° WSW 00:21:34 17° SW 00:25:04 10° S night (unlit)
02 Dec - 15:27:58 10° SSE 15:33:24 13° SE 15:38:24 10° ESE daylight
02 Dec - 17:26:19 10° SSW 17:37:36 32° SSE 17:46:11 10° E visible
02 Dec - 19:30:40 10° WSW 19:42:09 48° S 19:49:58 10° ESE visible
02 Dec - 21:36:48 10° W 21:46:14 44° SSW 21:52:36 10° SE visible
02 Dec - 23:43:36 10° W 23:49:04 20° SW 23:53:22 10° S night (unlit)
03 Dec - 14:56:26 10° SSE 15:00:22 12° SE 15:04:05 10° ESE daylight
03 Dec - 16:53:05 10° SSW 17:04:28 31° SSE 17:13:25 10° E visible
03 Dec - 18:57:04 10° WSW 19:09:08 48° S 19:17:29 10° E visible
03 Dec - 21:03:10 10° W 21:13:26 47° SSW 21:20:18 10° ESE visible
03 Dec - 23:09:55 10° W 23:16:33 25° SW 23:21:30 10° SSE visible
04 Dec - 16:19:56 10° SSW 16:31:19 29° SSE 16:40:32 10° E daylight
04 Dec - 18:23:29 10° SW 18:36:01 47° SSE 18:44:56 10° E visible
04 Dec - 20:29:30 10° WSW 20:40:33 50° S 20:47:58 10° ESE visible
04 Dec - 22:36:15 10° W 22:43:57 29° SSW 22:49:31 10° SSE visible
05 Dec - 15:46:54 10° SSW 15:58:08 28° SE 16:07:32 10° E daylight
05 Dec - 17:49:55 10° SW 18:02:52 47° SSE 18:12:18 10° E visible
05 Dec - 19:55:49 10° WSW 20:07:36 52° S 20:15:34 10° ESE visible
05 Dec - 22:02:34 10° W 22:11:18 33° SSW 22:17:27 10° SSE visible
